INTELSAT 29E

Last updated on Sat May 28 2016 17:40:27 GMT+0000 (Coordinated Universal Time)

1 41308U 16004A 16149.22709604 -.00000286 00000-0 00000+0 0 9994 2 41308 0.0382 19.8921 0002885 46.0361 212.0437 1.00272073 1332
UTC large
Height (km)
Speed (km/s)
/
Latitude / Longitude
Inclination (degrees)
Orbital Period (minutes)
Azimuth
Elevation
Range (km)
Doppler Factor

Next 0 passes for location: London (51.5072 / 0.1276)

Sorry there are no passes over London.